Regional Weather Roundup
Issued by NWS

Home | Current Version | Previous Version | Graphics & Text | Print | Product List | Glossary On
Versions: 1 2 3 4 5 6 7 8 9 10 11 12 13 14 15 16 17 18 19 20 21 22 23 24 25 26 27 28 29 30 31 32 33 34 35 36 37 38 39 40 41 42 43 44 45 46 47 48 49 50
578
ASUS44 KJAN 180503
RWRMS

MISSISSIPPI HOURLY WEATHER ROUNDUP
NATIONAL WEATHER SERVICE JACKSON MS
1100 PM CST WED DEC 17 2014

NOTE: "FAIR: INDICATES FEW OR NO CLOUDS BELOW 12,000 FEET WITH NO
SIGNIFICANT WEATHER AND/OR OBSTRUCTIONS TO VISIBILITY.

MSZ001>002-007>008-010>013-018>021-025>028-034>036-180600-
NORTHWEST MISSISSIPPI

CITY           SKY/WX    TMP DP  RH WIND       PRES   REMARKS
CLARKSDALE     CLOUDY    41  37  87 N9        30.29R
CLEVELAND      CLOUDY    42  39  89 N10       30.27R
GREENWOOD      CLOUDY    42  37  82 N5        30.23R
GREENVILLE     CLOUDY    44  38  79 N12       30.26R
GRENADA        FAIR      41  36  81 CALM      30.25R
OLIVE BRANCH   CLOUDY    37  34  87 CALM      30.28R
OXFORD         CLOUDY    37  32  81 NE5       30.24R WCI  34
TUNICA         CLOUDY    41  34  75 NW10      30.32R
$$

MSZ003>006-009-014>017-022>024-029>033-037>039-180600-
NORTHEAST MISSISSIPPI

CITY           SKY/WX    TMP DP  RH WIND       PRES   REMARKS
COLUMBUS AFB   CLOUDY    40  36  83 CALM      30.23R
CORINTH        CLOUDY    41  32  70 NE8       30.23S
GOLDN TRIANGLE CLOUDY    39  36  87 N6        30.21S WCI  35
STARKVILLE     FAIR      41  36  81 NE3       30.22S
TUPELO         CLOUDY    41  33  73 NE7       30.22F
$$

MSZ040-058-180600-
CENTRAL MISSISSIPPI

CITY           SKY/WX    TMP DP  RH WIND       PRES   REMARKS
JACKSON INTL   PTCLDY    46  40  79 NE5       30.19F
JACKSON HAWKNS PTCLDY    45  38  76 CALM      30.20S
MERIDIAN KEY   PTCLDY    42  36  79 CALM      30.21S
MERIDIAN NAS   MOCLDY    41  37  86 CALM      30.21F
RAYMOND        FAIR      43  37  81 MISG      30.20R
VICKSBURG      PTCLDY    44  38  79 E5        30.20F
$$

MSZ059>079-180600-
SOUTH MISSISSIPPI

CITY           SKY/WX    TMP DP  RH WIND       PRES   REMARKS
HATTIESBURG    MOCLDY    44  41  89 CALM      30.20F
MCCOMB         MOCLDY    45  40  82 CALM      30.19S
NATCHEZ        MOCLDY    46  39  76 CALM      30.21R
PINE BELT      MOCLDY    41  36  81 CALM      30.20F
$$

MSZ080>082-180600-
COASTAL MISSISSIPPI

CITY           SKY/WX    TMP DP  RH WIND       PRES   REMARKS
BILOXI         CLOUDY    49  43  79 E3        30.20F
PASCAGOULA     MOCLDY    42  40  92 CALM      30.21F
GULFPORT       CLOUDY    47  42  83 CALM      30.20F
$$



USA.gov is the U.S. government's official web portal to all federal, state and local government web resources and services.